Regional Weather Roundup
Issued by NWS Sterling, VA

Home | Current Version | Previous Version | Graphics & Text | Print | Product List | Glossary On
Versions: 1 2 3 4 5 6 7 8 9 10 11 12 13 14 15 16 17 18 19 20 21 22 23 24 25 26 27 28 29 30 31 32 33 34 35 36 37 38 39 40 41 42 43 44 45 46 47 48 49 50
000
ASUS41 KLWX 010510
RWRLWX

REGIONAL WEATHER ROUNDUP
NATIONAL WEATHER SERVICE BALTIMORE MD/WASHINGTON DC
1200 AM EST SUN FEB 01 2015

Note: "FAIR" indicates few or no clouds below 12,000 feet
with no significant weather and/or obstructions to visibility.
 TC=TEMPERATURE CELSIUS

 * =Non NWS site. Station does not report precipitation (e.g. rain,
    snow, etc.), thunder, or fog.

DCZ001-MDZ009-015-VAZ040>042-051-053>054-010600-
WASHINGTON METRO

CITY           SKY/WX    TMP DP  RH WIND       PRES   REMARKS
WASHINGTON NAT PTCLDY    29  16  58 CALM      30.29R
DULLES         MOCLDY    19  12  74 CALM      30.26S
ANDREWS AFB    CLEAR     20  13  75 CALM      30.26S
FT BELVOIR     PTCLDY    21  14  76 NW1       30.29S
QUANTICO       PTCLDY    23  14  68 NW5       30.30R
COLLEGE PARK*  PTCLDY    21  18  86 CALM      30.28S
LEESBURG*      PTCLDY    21  18  86 CALM      30.27S
MANASSAS*      PTCLDY    19  18  93 CALM      30.28S
GAITHERSBURG*  PTCLDY    18   9  68 CALM      30.29S

$$

MDZ006>007-011-014-010600-
BALTIMORE METRO

CITY           SKY/WX    TMP DP  RH WIND       PRES   REMARKS
BWI AIRPORT    PTCLDY    19  11  70 CALM      30.27S
MD SCIENCE CTR   N/A     26  11  52 MISG      30.28R
MARTIN STATE   CLEAR     21  18  86 CALM      30.30S
ANNAPOLIS      CLEAR     23  15  71 CALM      30.28S
FORT MEADE*    CLEAR     18  12  79 CALM      30.30S

$$

MDZ012-015-019>023-010600-
MARYLAND EASTERN SHORE

CITY           SKY/WX    TMP DP  RH WIND       PRES   REMARKS
OCEAN CITY     CLEAR     18  13  80 W3        30.28F
SALISBURY      CLEAR     20  11  68 CALM      30.28S
BAY BRIDGE AP*   N/A     25  18  74 CALM      30.29S
CAMBRIDGE*     CLEAR     23  16  74 CALM      30.28S
EASTON*        CLEAR     24  15  69 CALM      30.31F

$$

MDZ017>025-010600-
SOUTHERN MARYLAND

CITY           SKY/WX    TMP DP  RH WIND       PRES   REMARKS
PATUXENT RIVER PTCLDY    20  10  65 SW3       30.28S
ST INIGOES     NOT AVBL
LEONARDTOWN*   PTCLDY    21  12  68 CALM      30.29S

$$

MDZ003>005-010600-
NORTH CENTRAL MARYLAND

CITY           SKY/WX    TMP DP  RH WIND       PRES   REMARKS
FREDERICK*     PTCLDY    25  12  58 E5        30.29S
HAGERSTOWN APT PTCLDY    25   9  50 S3        30.24R
WESTMINSTER*   PTCLDY    21   9  58 CALM      30.23S

$$

MDZ501>502-010600-
WESTERN MARYLAND

CITY           SKY/WX    TMP DP  RH WIND       PRES   REMARKS
OAKLAND*       CLOUDY    23  12  63 W14G22    30.12S WCI  11
CUMBERLAND*    PTCLDY    23  16  74 CALM      30.27S

$$

VAZ025>031-010600-
SHENANDOAH VALLEY

CITY           SKY/WX    TMP DP  RH WIND       PRES   REMARKS
WINCHESTER*    PTCLDY    25  10  54 CALM      30.23S
FRONT ROYAL*   FAIR      23  12  63 CALM      30.23S
LURAY*         FAIR      25  19  80 CALM      30.23R
NEW MARKET*    FAIR      21  17  83 CALM      30.22S
STAUNTON*      CLOUDY    25  17  73 CALM      30.23S
WAYNESBORO*    FAIR      35   1  23 SW5       30.21S

$$

WVZ021-048>050-054>055-010600-
EASTERN WEST VIRGINIA PANHANDLE

CITY           SKY/WX    TMP DP  RH WIND       PRES   REMARKS
MARTINSBURG    MOCLDY    22   8  55 CALM      30.25R
PETERSBURG*    PTCLDY    26  13  56 CALM      30.23S

$$

VAZ036>039-050-010600-
CENTRAL FOOTHILLS

CITY           SKY/WX    TMP DP  RH WIND       PRES   REMARKS
CHARLOTTESVILL CLOUDY    28   7  41 CALM      30.23S
CULPEPER*      MOCLDY    19  16  86 CALM      30.26S
ORANGE*        MOCLDY    27  18  69 CALM      30.27R
GORDONSVILLE*  FAIR      23  16  73 CALM      30.25R
WARRENTON*     FAIR      19  19  99 CALM      30.26S

$$

VAZ055>057-010600-
NORTH AND CENTRAL PIEDMONT

CITY           SKY/WX    TMP DP  RH WIND       PRES   REMARKS
FREDERICKSBRG* MOCLDY    24  15  69 CALM      30.27S
STAFFORD*      MOCLDY    20  13  76 CALM      30.32R

$$

NCZ024-NYZ072-PAZ021-071-VAZ022-071-010600-
OTHER REGIONAL OBSERVATIONS

CITY           SKY/WX    TMP DP  RH WIND       PRES   REMARKS
NEW YORK CITY  CLEAR     20   5  52 MISG      30.21F
PHILADELPHIA   PTCLDY    23  10  57 W10       30.27R WCI  12
PITTSBURGH     CLOUDY    28  17  63 SW9       30.19F WCI  19
ROANOKE        CLOUDY    36   9  32 NW5       30.25F
RICHMOND       PTCLDY    27  13  55 CALM      30.25F
RALEIGH        MOCLDY    33  17  51 CALM      30.28S

$$

ANZ530>537-010600-
MARINE OBSERVATIONS

STATION/POSITION TIME  TEMP    WIND        PRES
                       AIR SEA DIR/SP/G
                 (UTC) (F)     (DEG/KT/KT) (MB)
THOMAS PT LIGHT  0500   29 34  320/  2/  2 1026.5S
BALT KEY BRIDGE  0500   28     260/  3/  4 1025.5S
COVE POINT       0500   29     230/  1/  2 1025.1S
LEWISETTA        0500   27 33     CALM     1025.1S
SOLOMONS ISLAND  0500      36                N/A
PINEY POINT      0500          120/  3/  4   N/A

$$



USA.gov is the U.S. government's official web portal to all federal, state and local government web resources and services.